DateTimeUTC,F1_A11,F1_S11,BsB_S11,BsG_S11,BsR_S11,BbsB_S11,BbsG_S11,BbsR_S11,BaB_A11,BaG_A11,BaR_A11,Tu_S11,T_S11,Uu_S11,U_S11,P_S11,T1_A11
2021-07-20T06:00:00Z,00000200,20000000,,,,,,,-000.10,0000.32,-000.02,18.8,25.3,16.9,11.4,0671.7,31.0
2021-07-20T06:01:00Z,00000200,20000000,,,,,,,0000.19,0000.25,0000.39,18.8,25.3,16.9,11.4,0671.7,31.0
2021-07-20T06:02:00Z,00000200,20000000,,,,,,,0000.03,-000.11,-000.02,18.8,25.3,16.9,11.4,0671.7,31.0
2021-07-20T06:03:00Z,00000200,60000000,,,,,,,0000.08,0000.37,-000.25,18.8,25.3,16.9,11.4,0671.7,31.0
2021-07-20T06:04:00Z,00000200,40000000,0000.09,0000.18,0000.04,0000.47,-000.05,0000.00,0000.47,0000.04,0000.46,18.9,25.1,17.4,11.9,0672.6,31.0
2021-07-20T06:05:00Z,00000200,00000000,0000.54,0000.50,-000.02,-000.24,-000.07,0000.06,0000.15,-000.18,0000.17,18.9,25.1,17.5,12.0,0672.7,31.0
2021-07-20T06:06:00Z,00000200,00000000,0000.59,0000.42,0000.18,-000.08,-000.10,-000.21,0000.01,0000.37,-000.07,18.9,25.1,17.6,12.1,0672.6,31.0
2021-07-20T06:07:00Z,00000200,00000000,0000.53,0000.13,0000.02,0000.25,-000.17,-000.04,0000.59,0000.12,0000.12,18.9,25.1,17.8,12.3,0672.6,31.1
2021-07-20T06:08:00Z,00000200,00000000,-000.05,0000.22,0000.10,-000.40,-000.03,-000.17,-000.18,-000.08,0000.06,19.0,25.1,17.8,12.2,0672.6,31.0
2021-07-20T06:09:00Z,00000200,00000000,-000.59,0000.21,-000.09,-000.13,0000.20,-000.38,0000.17,0000.64,0000.24,19.0,25.1,17.9,12.3,0672.6,31.1
2021-07-20T06:10:00Z,00000200,00000000,0000.21,0000.16,0000.10,-000.27,-000.01,-000.14,0000.15,-000.20,-000.21,19.0,25.1,17.9,12.4,0672.6,31.0
2021-07-20T06:11:00Z,00000200,00000000,0000.27,-000.04,0000.00,0000.32,-000.03,-000.20,-000.30,0000.21,0000.30,19.0,25.1,18.0,12.4,0672.5,31.0
2021-07-20T06:12:00Z,00000200,00000000,0000.46,0000.12,0000.12,-000.32,-000.02,-000.10,0000.15,-000.38,-000.27,19.0,25.1,18.1,12.4,0672.5,31.0
2021-07-20T06:13:00Z,00000200,00000000,0001.22,0000.04,0000.19,-000.18,0000.23,-000.20,0000.29,0000.59,0000.26,19.0,25.1,17.9,12.4,0672.5,31.1
2021-07-20T06:14:00Z,00000200,00000000,-000.47,0000.11,0000.16,-000.02,0000.21,0000.20,-000.10,-000.19,-000.17,19.0,25.0,18.1,12.5,0672.5,31.1
2021-07-20T06:15:00Z,00000200,00000000,0000.07,-000.03,-000.13,-000.24,-000.02,-000.28,0000.11,0000.11,0000.33,19.0,25.1,18.0,12.4,0672.5,31.0
2021-07-20T06:16:00Z,00000200,00000000,0000.40,0000.12,0000.32,-000.31,0000.35,0000.02,0000.19,0000.12,0000.21,19.0,25.0,18.1,12.5,0672.5,31.0
2021-07-20T06:17:00Z,00000200,00000000,0000.25,0000.26,-000.12,-000.09,-000.00,-000.06,0000.00,0000.01,-000.17,19.0,25.0,18.0,12.4,0672.5,31.0
2021-07-20T06:18:00Z,00000200,00000000,0000.50,0000.49,-000.02,-000.38,0000.19,-000.10,-000.02,-000.33,0000.04,19.0,25.0,17.9,12.4,0672.5,31.0
2021-07-20T06:19:00Z,00000200,00000000,0000.89,0000.29,-000.03,-000.02,0000.17,-000.03,-000.02,0000.25,0000.19,19.0,25.0,18.0,12.4,0672.5,31.1
2021-07-20T06:20:00Z,00000200,00000000,0000.74,0000.51,0000.02,-000.27,-000.19,-000.17,-000.17,-000.48,-000.32,19.0,25.0,18.0,12.4,0672.5,31.1
2021-07-20T06:21:00Z,00000200,00000000,0000.87,0000.19,0000.08,-000.17,0000.25,-000.16,-000.04,0000.23,0000.27,19.0,25.1,18.0,12.4,0672.5,31.1
2021-07-20T06:22:00Z,00000200,00000000,-000.27,0000.10,-000.24,-000.15,0000.25,-000.03,0000.26,0000.13,0000.01,19.0,25.0,18.0,12.4,0672.5,31.1
2021-07-20T06:23:00Z,00000200,00000000,0000.39,0000.00,0000.23,0000.08,-000.07,0000.17,-000.00,0000.20,0000.03,19.0,25.0,18.0,12.4,0672.5,31.0
2021-07-20T06:24:00Z,00000200,00000000,-000.25,0000.17,0000.23,-000.17,0000.22,-000.09,-000.21,0000.04,0000.15,19.0,25.1,18.0,12.4,0672.5,31.0
2021-07-20T06:25:00Z,00000200,00000000,0000.57,0000.16,0000.02,-000.46,0000.09,-000.43,0000.40,-000.07,-000.52,19.0,25.0,17.9,12.4,0672.4,31.1
2021-07-20T06:26:00Z,00000200,00000000,0000.05,0000.04,-000.07,-000.27,0000.21,-000.30,0000.22,0000.33,0000.41,19.0,25.1,17.9,12.4,0672.4,31.0
2021-07-20T06:27:00Z,00000200,00000000,0000.42,0000.24,-000.07,0000.08,0000.17,0000.35,0000.26,-000.13,0000.45,19.0,25.1,18.0,12.4,0672.4,31.0
2021-07-20T06:28:00Z,00000200,00000000,-000.18,0000.03,0000.20,-000.42,-000.07,0000.38,-000.38,-000.22,-000.49,19.0,25.1,18.0,12.4,0672.4,31.0
2021-07-20T06:29:00Z,00000200,00000000,-000.17,-000.01,-000.06,-000.42,-000.12,0000.09,-000.23,0000.31,-000.08,19.0,25.0,18.0,12.5,0672.4,31.1
2021-07-20T06:30:00Z,00000200,00000000,-000.64,0000.28,0000.18,0000.32,0000.10,-000.26,0000.32,-000.10,0000.22,19.0,25.0,17.9,12.4,0672.4,31.1
2021-07-20T06:31:00Z,00000200,00000000,-000.26,0000.21,0000.01,-000.02,-000.06,-000.19,-000.30,0000.01,0000.12,19.0,25.0,18.0,12.5,0672.4,31.0
2021-07-20T06:32:00Z,00000200,00000000,-000.23,0000.24,-000.00,-000.27,0000.15,0000.10,0000.48,0000.17,0000.39,19.0,25.0,18.0,12.5,0672.4,31.0
2021-07-20T06:33:00Z,00000200,00000000,-000.02,0000.03,0000.16,0000.17,0000.08,-000.03,-000.46,-000.08,-000.17,19.0,25.0,18.1,12.5,0672.4,31.0
2021-07-20T06:34:00Z,00000200,00000000,0000.21,0000.09,-000.09,0000.20,0000.13,0000.20,0000.27,-000.09,0000.13,19.0,25.0,18.0,12.5,0672.4,31.1
2021-07-20T06:35:00Z,00000200,00000000,0001.02,0000.54,0000.20,-000.50,-000.22,-000.06,0000.35,0000.31,0000.07,19.0,25.0,18.1,12.5,0672.4,31.0
2021-07-20T06:36:00Z,00000200,00000000,0000.10,-000.11,0000.25,-000.52,0000.09,0000.37,-000.04,-000.06,-000.60,19.0,25.0,18.1,12.5,0672.4,31.0
2021-07-20T06:37:00Z,00000200,00000000,-000.24,0000.28,0000.00,-000.13,0000.13,-000.27,-000.10,-000.10,0000.35,19.0,25.0,18.0,12.4,0672.4,31.1
2021-07-20T06:38:00Z,00000200,00000000,0000.10,0000.23,0000.18,0000.29,0000.24,0000.07,-000.38,0000.07,0000.18,19.0,25.0,18.1,12.5,0672.4,31.0
2021-07-20T06:39:00Z,00000200,00000000,-000.03,0000.18,0000.13,-000.56,0000.13,-000.16,0000.23,-000.02,-000.09,19.0,25.0,18.0,12.5,0672.4,31.1
2021-07-20T06:40:00Z,00000200,00000000,0000.12,0000.09,-000.36,0000.04,0000.15,-000.13,0000.25,-000.09,-000.22,19.0,25.0,18.0,12.5,0672.4,31.0
2021-07-20T06:41:00Z,00000200,00000000,0000.33,0000.34,0000.12,-000.33,0000.00,-000.14,-000.10,0000.17,0000.18,19.0,25.0,18.0,12.5,0672.4,31.0
2021-07-20T06:42:00Z,00000200,00000000,0000.62,0000.06,0000.16,0000.52,0000.00,-000.14,-000.01,0000.33,-000.07,19.1,25.0,18.0,12.5,0672.4,31.1
2021-07-20T06:43:00Z,00000200,00000000,0000.40,0000.10,0000.11,-000.10,0000.17,-000.07,-000.10,-000.25,-000.03,19.0,25.0,17.9,12.4,0672.4,31.1
2021-07-20T06:44:00Z,00000200,00000000,-000.36,0000.19,-000.01,0000.61,0000.20,-000.19,-000.05,0000.00,0000.03,19.0,25.0,17.9,12.4,0672.4,31.1
2021-07-20T06:45:00Z,00000200,00000000,0000.42,0000.27,-000.23,0000.32,0000.20,-000.20,-000.00,-000.04,0000.11,19.1,25.1,18.0,12.5,0672.4,31.0
2021-07-20T06:46:00Z,00000200,00000000,-000.02,0000.07,0000.33,0000.12,0000.26,0000.04,0000.19,0000.17,0000.19,19.1,25.1,17.9,12.4,0672.4,31.1
2021-07-20T06:47:00Z,00000200,00000000,-000.09,0000.36,0000.03,-000.40,0000.07,0000.07,0000.19,-000.20,0000.00,19.1,25.1,17.9,12.4,0672.4,31.1
2021-07-20T06:48:00Z,00000200,00000000,-000.51,0000.01,-000.15,0000.04,0000.03,-000.18,-000.11,0000.52,-000.07,19.0,25.1,17.9,12.4,0672.4,31.1
2021-07-20T06:49:00Z,00000200,00000000,0001.16,-000.24,-000.08,-000.06,-000.01,-000.10,0000.15,-000.21,-000.10,19.1,25.0,17.9,12.4,0672.4,31.1
2021-07-20T06:50:00Z,00000200,00000000,0000.08,0000.12,0000.46,0000.18,0000.29,0000.01,-000.09,-000.15,-000.10,19.1,25.1,17.8,12.4,0672.4,31.1
2021-07-20T06:51:00Z,00000200,00000000,-000.21,0000.49,0000.10,0000.21,0000.27,-000.28,-000.21,-000.23,0000.51,19.2,25.1,17.8,12.4,0672.4,31.1
2021-07-20T06:52:00Z,00000200,00000000,-000.18,0000.06,0000.11,-000.07,-000.04,-000.20,0000.27,0000.21,-000.19,19.2,25.1,17.7,12.3,0672.4,31.1
2021-07-20T06:53:00Z,00000200,00000000,-000.62,0000.10,-000.51,-000.16,-000.02,-000.01,0000.21,0000.24,-000.29,19.2,25.1,17.7,12.3,0672.4,31.1
2021-07-20T06:54:00Z,00000200,00000000,-000.07,0000.18,0000.12,-000.35,0000.07,-000.15,0000.08,0000.08,0000.34,19.2,25.1,17.8,12.4,0672.4,31.1
2021-07-20T06:55:00Z,00000200,00000000,-000.14,0000.02,0000.14,0000.06,-000.08,0000.24,-000.14,-000.40,-000.13,19.2,25.1,17.8,12.3,0672.4,31.1
2021-07-20T06:56:00Z,00000200,00000000,0000.64,0000.14,0000.08,0000.03,-000.03,-000.06,-000.46,0000.25,0000.05,19.2,25.1,17.8,12.4,0672.4,31.1
2021-07-20T06:57:00Z,00000200,40000000,,,,,,,0000.23,-000.00,-000.29,19.2,25.2,17.6,12.2,0672.5,31.1
2021-07-20T06:58:00Z,00000200,60000000,,,,,,,-000.01,-000.13,0000.22,19.0,25.3,17.9,12.2,0671.4,31.1
2021-07-20T06:59:00Z,00000200,20000000,,,,,,,-000.12,0000.10,0000.14,19.0,25.4,18.0,12.2,0671.4,31.1
